Flag for Canada

Past Weather in Oakville, Ontario, Canada — Yesterday and Last 2 Weeks

Now
74 °F

Mild.


Feels Like: 77 °F
Forecast: 71 / 55 °F
Wind: 2 mph from West

Location: Burlington Piers
Current Time: Sep 23, 2020 at 8:55:54 pm
Latest Report: Sep 23, 2020 at 8:00 pm
Visibility: N/A
Pressure29.93 "Hg
Humidity: 49%
Dew Point: 54 °F
Location of OakvilleLocation

Past Weather in Oakville — Graph

°F

Oakville Temperature Yesterday

Maximum temperature yesterday: 73 °F (at 5:00 pm)
Minimum temperature yesterday: 51 °F (at 6:00 am)
Average temperature yesterday: 59 °F

High & Low Weather Summary for the Past Weeks

 TemperatureHumidityPressure
High80 °F (Sep 23, 4:00 pm)100% (Sep 9, 7:00 am)30.59 "Hg (Sep 9, 7:00 am)
Low46 °F (Sep 19, 7:00 am)35% (Sep 18, 7:00 pm)29.84 "Hg (Sep 13, 8:00 am)
Average60 °F69%30.23 "Hg
* Reported Sep 8 7:00 pm — Sep 23 7:00 pm, Oakville. Weather by CustomWeather, © 2020

Note: Actual official high and low records may vary slightly from our data, if they occured in-between our weather recording intervals... More about our weather records

Oakville Weather History for the Previous 24 Hours

Scroll right to see more
 ConditionsComfort  
Time TempWeatherWind HumidityBarometerVisibility
7:00 pm
Wed, Sep 23
77 °FWarm.5 mph41%29.91 "HgN/A
6:00 pm79 °FPleasantly warm.7 mph39%29.89 "HgN/A
5:00 pm80 °FPleasantly warm.8 mph36%29.88 "HgN/A
4:00 pm80 °FPleasantly warm.6 mph35%29.88 "HgN/A
3:00 pm79 °FPleasantly warm.7 mph36%29.89 "HgN/A
2:00 pm76 °FMild.7 mph43%29.92 "HgN/A
1:00 pm74 °FMild.7 mph57%29.94 "HgN/A
12:00 pm69 °FMild.6 mph67%29.96 "HgN/A
11:00 am67 °FMild.7 mph71%29.97 "HgN/A
10:00 am63 °FMild.6 mph76%29.98 "HgN/A
9:00 am60 °FCool.7 mph80%29.97 "HgN/A
8:00 am58 °FCool.9 mph85%29.97 "HgN/A
7:00 am59 °FCool.8 mph82%29.96 "HgN/A
6:00 am58 °FCool.5 mph84%29.96 "HgN/A
5:00 am59 °FCool.8 mph75%29.96 "HgN/A
4:00 am60 °FCool.8 mph76%29.95 "HgN/A
3:00 am60 °FCool.8 mph74%29.96 "HgN/A
2:00 am60 °FCool.7 mph75%29.97 "HgN/A
1:00 am61 °FCool.8 mph76%29.97 "HgN/A
12:00 am61 °FCool.7 mph78%29.99 "HgN/A
11:00 pm
Tue, Sep 22
63 °FMild.6 mph73%30.00 "HgN/A
10:00 pm62 °FCool.6 mph74%30.01 "HgN/A
9:00 pm65 °FMild.3 mph67%30.03 "HgN/A
8:00 pm67 °FMild.6 mph61%30.02 "HgN/A
Weather by CustomWeather, © 2020

See weather overview